Weather History for Naples, FL

Change the Weather History Date:

Monday, February 18, 2013

  Actual Average Record
Temperature  
Mean Temperature 57 °F 67 °F  
Max Temperature 73 °F 77 °F 87 °F (1975)
Min Temperature 40 °F 57 °F 35 °F (1996)
Degree Days  
Heating Degree Days 8 2  
Month to date heating degree days 36 36  
Since 1 July heating degree days 94 216  
Cooling Degree Days 0 4  
Month to date cooling degree days 64 62  
Year to date cooling degree days 257 148  
Growing Degree Days 6 (Base 50)    
Moisture  
Dew Point 39 °F    
Average Humidity 53    
Maximum Humidity 73    
Minimum Humidity 33    
Precipitation  
Precipitation 0.00 in 0.07 in 1.85 in (1978)
Month to date precipitation 1.60 1.39  
Year to date precipitation 1.75 3.24  
Snow  
Snow 0.00 in - - ()
Month to date snowfall 0.0  
Since 1 July snowfall 0.0  
Snow Depth 0.00 in    
Sea Level Pressure  
Sea Level Pressure 30.27 in    
Wind  
Wind Speed 10 mph (ENE)    
Max Wind Speed 20 mph    
Max Gust Speed 23 mph    
Visibility 10 miles    
Events      
T = Trace of Precipitation, MM = Missing Value Source: NWS Daily Summary

Daily Weather History Graph

Daily Weather History Graph

Search for Another Location

Airport:

Trip Planner

Search our weather history database for the weather conditions in past years. The results will help you decide how hot, cold, wet, or windy it might be!

Date:

Astronomy

Feb. 18, 2013 Rise Set
Actual Time 7:00 AM EST 6:22 PM EST
Civil Twilight 6:36 AM EST 6:45 PM EST
Nautical Twilight 6:09 AM EST 7:12 PM EST
Astronomical Twilight 5:42 AM EST 7:39 PM EST
Moon 12:23 PM EST (2/18) 1:23 AM EST (2/18)
Length of Visible Light 12h 09m
Length of Day
11h 22m
First Quarter, 58% of the Moon is Illuminated
Feb 18
First Quarter
Feb 25
Full
Mar 4
Last Quarter
Mar 11
New
Mar 19
First Quarter

Hourly Weather History & Observations

Time (EST) Temp. Windchill Dew Point Humidity Pressure Visibility Wind Dir Wind Speed Gust Speed Precip Events Conditions
12:53 AM 42.1 °F 37.7 °F 30.9 °F 65% 30.32 in 10.0 mi ENE 6.9 mph - N/A   Clear
1:53 AM 41.0 °F 36.4 °F 30.0 °F 65% 30.32 in 10.0 mi ENE 6.9 mph - N/A   Clear
2:53 AM 39.9 °F 35.8 °F 30.0 °F 68% 30.30 in 10.0 mi NE 5.8 mph - N/A   Clear
3:53 AM 39.9 °F 35.8 °F 30.9 °F 70% 30.30 in 10.0 mi NE 5.8 mph - N/A   Clear
4:53 AM 41.0 °F 38.0 °F 33.1 °F 73% 30.29 in 10.0 mi NE 4.6 mph - N/A   Clear
5:53 AM 41.0 °F 38.0 °F 30.9 °F 67% 30.30 in 10.0 mi NE 4.6 mph - N/A   Clear
6:53 AM 42.1 °F 37.1 °F 28.9 °F 60% 30.30 in 10.0 mi NE 8.1 mph - N/A   Clear
7:53 AM 46.0 °F 41.9 °F 28.0 °F 50% 30.32 in 10.0 mi NE 8.1 mph - N/A   Clear
8:53 AM 51.1 °F - 26.1 °F 38% 30.32 in 10.0 mi NE 11.5 mph - N/A   Clear
9:53 AM 57.0 °F - 32.0 °F 39% 30.32 in 10.0 mi NE 12.7 mph - N/A   Clear
10:53 AM 62.1 °F - 39.0 °F 43% 30.32 in 10.0 mi East 12.7 mph 18.4 mph N/A   Clear
11:53 AM 66.9 °F - 43.0 °F 42% 30.30 in 10.0 mi East 16.1 mph 21.9 mph N/A   Partly Cloudy
12:53 PM 70.0 °F - 45.0 °F 41% 30.27 in 10.0 mi East 11.5 mph 23.0 mph N/A   Scattered Clouds
1:53 PM 72.0 °F - 44.1 °F 37% 30.23 in 10.0 mi East 15.0 mph - N/A   Partly Cloudy
2:53 PM 73.0 °F - 43.0 °F 34% 30.22 in 10.0 mi ENE 15.0 mph - N/A   Partly Cloudy
3:53 PM 72.0 °F - 43.0 °F 35% 30.21 in 10.0 mi ESE 8.1 mph - N/A   Scattered Clouds
4:53 PM 72.0 °F - 44.1 °F 37% 30.21 in 10.0 mi East 11.5 mph - N/A   Mostly Cloudy
5:53 PM 68.0 °F - 45.0 °F 43% 30.21 in 10.0 mi East 10.4 mph - N/A   Partly Cloudy
6:53 PM 64.9 °F - 48.0 °F 54% 30.22 in 10.0 mi East 6.9 mph - N/A   Clear
7:53 PM 62.1 °F - 48.9 °F 62% 30.22 in 10.0 mi East 5.8 mph - N/A   Clear
8:53 PM 60.1 °F - 48.9 °F 67% 30.23 in 10.0 mi East 5.8 mph - N/A   Partly Cloudy
9:53 PM 57.9 °F - 48.9 °F 72% 30.24 in 10.0 mi ENE 5.8 mph - N/A   Clear
10:53 PM 57.0 °F - 48.9 °F 74% 30.24 in 10.0 mi NE 4.6 mph - N/A   Partly Cloudy
11:53 PM 55.0 °F - 48.9 °F 80% 30.21 in 10.0 mi ENE 5.8 mph - N/A   Clear